Location: Bailleul
(50.3375°N, 2.8513°E)
Time: 04:53:48
(UTC+00:00)

Cosmos 2333 Rocket - Pass Details

Date: 19 April 2021
Orbit: 838 x 864 km, 70.8° (Epoch: 09 May)

Event Time Altitude Azimuth Distance (km) Brightness Sun altitude
Rises 19:43:54 0° 327° (NNW) 3,455 6.6 -8.7°
Reaches altitude 10° 19:46:25 10° 323° (NW) 2,512 5.9 -9.0°
Maximum altitude 19:52:00 52° 249° (WSW) 1,060 3.0 -9.8°
Drops below altitude 10° 19:57:31 10° 174° (S) 2,483 4.3 -10.5°
Enters shadow 19:59:36 - 170° (S) 3,254 4.8 -10.8°
